SAS8411 ESMS-ESSA

Flight info

Callsign SAS8411
Flight time 0h 48m
Altitude 37000
Route NEXIL N851 ROXEN DCT MIKNA N851 PELUP Z226 NILUG
Aircraft A20N/M-SDE2E3FGHIRWXY/LB1

Departure

Time 2026-04-21 19:24
Airport Malmö Sturup Airport (ESMS)

Arrival

Time 2026-04-21 20:12
Airport Stockholm-Arlanda Airport (ESSA)
Time Latitude Longitude Altitude Speed Heading
2026-04-21 19:07 55.54221 13.36631 239 ft 0 kts 354°
2026-04-21 19:16 55.54226 13.36636 239 ft 1 kts 34°
2026-04-21 19:16 55.54226 13.36644 239 ft 1 kts 79°
2026-04-21 19:16 55.54225 13.36656 239 ft 1 kts 104°
2026-04-21 19:17 55.54238 13.36713 239 ft 13 kts 73°
2026-04-21 19:17 55.54238 13.36725 239 ft 1 kts 99°
2026-04-21 19:17 55.54203 13.36804 239 ft 13 kts 135°
2026-04-21 19:18 55.54170 13.36931 239 ft 11 kts 82°
2026-04-21 19:18 55.54207 13.37134 239 ft 20 kts 53°
2026-04-21 19:18 55.54305 13.37188 239 ft 14 kts 355°
2026-04-21 19:18 55.54426 13.37164 240 ft 21 kts 354°
2026-04-21 19:19 55.54571 13.37136 240 ft 21 kts 358°
2026-04-21 19:19 55.54719 13.37203 240 ft 24 kts 24°
2026-04-21 19:19 55.54787 13.37352 244 ft 7 kts 124°
2026-04-21 19:19 55.54711 13.37398 242 ft 19 kts 172°
2026-04-21 19:20 55.54360 13.37469 239 ft 86 kts 174°
2026-04-21 19:20 55.53570 13.37633 236 ft 112 kts 173°
2026-04-21 19:20 55.53093 13.37733 239 ft 47 kts 174°
2026-04-21 19:20 55.52977 13.37615 238 ft 18 kts 264°
2026-04-21 19:21 55.53021 13.37455 238 ft 14 kts 343°
2026-04-21 19:21 55.53141 13.37428 238 ft 22 kts 353°
2026-04-21 19:21 55.53319 13.37386 238 ft 30 kts 352°
2026-04-21 19:21 55.53545 13.37349 238 ft 36 kts 351°
2026-04-21 19:22 55.53806 13.37291 239 ft 39 kts 354°
2026-04-21 19:22 55.54072 13.37238 239 ft 38 kts 353°
2026-04-21 19:22 55.54204 13.37262 240 ft 14 kts 64°
2026-04-21 19:22 55.54223 13.37441 241 ft 14 kts 93°
2026-04-21 19:23 55.54171 13.37511 240 ft 12 kts 172°
2026-04-21 19:23 55.53962 13.37552 241 ft 33 kts 173°
2026-04-21 19:23 55.53434 13.37658 237 ft 118 kts 175°
2026-04-21 19:23 55.52388 13.37877 484 ft 169 kts 174°
2026-04-21 19:24 55.51373 13.38779 1462 ft 169 kts 123°
2026-04-21 19:24 55.51225 13.40738 2392 ft 164 kts 69°
2026-04-21 19:24 55.51939 13.42151 3292 ft 160 kts 21°
2026-04-21 19:24 55.53059 13.42809 3928 ft 178 kts 18°
2026-04-21 19:25 55.54310 13.43678 4199 ft 213 kts 25°
2026-04-21 19:25 55.55711 13.44993 4626 ft 239 kts 30°
2026-04-21 19:25 55.57158 13.46545 5482 ft 245 kts 32°
2026-04-21 19:25 55.58606 13.48153 6435 ft 249 kts 33°
2026-04-21 19:26 55.60090 13.49789 7313 ft 255 kts 33°
2026-04-21 19:26 55.61621 13.51438 8239 ft 259 kts 32°
2026-04-21 19:26 55.62652 13.52528 8853 ft 263 kts 32°
2026-04-21 19:26 55.64290 13.54238 9371 ft 285 kts 31°
2026-04-21 19:27 55.66036 13.56200 9788 ft 309 kts 34°
2026-04-21 19:27 55.67884 13.58392 10188 ft 331 kts 34°
2026-04-21 19:27 55.69848 13.60764 10552 ft 352 kts 35°
2026-04-21 19:27 55.71916 13.63297 10912 ft 370 kts 35°
2026-04-21 19:28 55.74054 13.65936 11582 ft 377 kts 36°
2026-04-21 19:28 55.76217 13.68615 12411 ft 380 kts 36°
2026-04-21 19:28 55.78395 13.71319 13214 ft 384 kts 36°
2026-04-21 19:28 55.80597 13.74055 14031 ft 388 kts 36°
2026-04-21 19:29 55.82820 13.76819 14755 ft 392 kts 36°
2026-04-21 19:29 55.85062 13.79611 15531 ft 394 kts 36°
2026-04-21 19:29 55.87319 13.82422 16309 ft 397 kts 36°
2026-04-21 19:29 55.89593 13.85260 17066 ft 401 kts 36°
2026-04-21 19:30 55.91882 13.88120 17799 ft 404 kts 36°
2026-04-21 19:30 55.94192 13.91010 18542 ft 407 kts 36°
2026-04-21 19:30 55.96519 13.93926 19167 ft 410 kts 36°
2026-04-21 19:30 55.98854 13.96856 19829 ft 411 kts 36°
2026-04-21 19:31 56.01203 13.99809 20487 ft 413 kts 36°
2026-04-21 19:31 56.03560 14.02776 21114 ft 416 kts 36°
2026-04-21 19:31 56.05935 14.05771 21731 ft 418 kts 36°
2026-04-21 19:31 56.08318 14.08780 22352 ft 421 kts 36°
2026-04-21 19:32 56.10720 14.11818 22974 ft 424 kts 36°
2026-04-21 19:32 56.13133 14.14875 23568 ft 426 kts 36°
2026-04-21 19:32 56.15562 14.17956 24129 ft 429 kts 36°
2026-04-21 19:32 56.18008 14.21064 24588 ft 432 kts 36°
2026-04-21 19:33 56.19667 14.23175 24901 ft 434 kts 36°
2026-04-21 19:33 56.22937 14.27342 25608 ft 435 kts 36°
2026-04-21 19:33 56.25432 14.30528 26243 ft 433 kts 36°
2026-04-21 19:33 56.27879 14.33656 26888 ft 431 kts 36°
2026-04-21 19:34 56.30318 14.36782 27483 ft 429 kts 36°
2026-04-21 19:34 56.32742 14.39892 28110 ft 427 kts 36°
2026-04-21 19:34 56.35156 14.42994 28764 ft 425 kts 36°
2026-04-21 19:34 56.37553 14.46079 29379 ft 423 kts 36°
2026-04-21 19:35 56.39942 14.49158 30001 ft 420 kts 36°
2026-04-21 19:35 56.44679 14.55280 31008 ft 418 kts 36°
2026-04-21 19:35 56.47038 14.58338 31504 ft 416 kts 36°
2026-04-21 19:36 56.49385 14.61384 31942 ft 415 kts 36°
2026-04-21 19:36 56.51740 14.64444 32329 ft 416 kts 35°
2026-04-21 19:36 56.54092 14.67504 32672 ft 417 kts 35°
2026-04-21 19:36 56.56446 14.70572 33052 ft 417 kts 35°
2026-04-21 19:37 56.58796 14.73640 33459 ft 416 kts 35°
2026-04-21 19:37 56.61141 14.76707 33856 ft 416 kts 35°
2026-04-21 19:37 56.63485 14.79776 34224 ft 415 kts 35°
2026-04-21 19:37 56.65827 14.82848 34539 ft 415 kts 36°
2026-04-21 19:38 56.68175 14.85932 34800 ft 416 kts 36°
2026-04-21 19:38 56.70523 14.89022 35034 ft 418 kts 36°
2026-04-21 19:38 56.72881 14.92129 35264 ft 419 kts 36°
2026-04-21 19:38 56.75241 14.95244 35509 ft 420 kts 36°
2026-04-21 19:39 56.77610 14.98375 35699 ft 422 kts 36°
2026-04-21 19:39 56.79990 15.01528 35939 ft 423 kts 36°
2026-04-21 19:39 56.82374 15.04689 36194 ft 424 kts 36°
2026-04-21 19:39 56.84762 15.07861 36429 ft 424 kts 36°
2026-04-21 19:40 56.87149 15.11037 36667 ft 425 kts 36°
2026-04-21 19:40 56.89542 15.14226 36895 ft 426 kts 36°
2026-04-21 19:40 56.91940 15.17426 37111 ft 427 kts 36°
2026-04-21 19:40 56.94341 15.20637 37349 ft 428 kts 36°
2026-04-21 19:41 56.96746 15.23857 37572 ft 429 kts 36°
2026-04-21 19:41 56.99154 15.27088 37795 ft 429 kts 36°
2026-04-21 19:41 57.01569 15.30332 37952 ft 431 kts 36°
2026-04-21 19:41 57.03992 15.33593 38175 ft 432 kts 36°
2026-04-21 19:42 57.06411 15.36854 38348 ft 432 kts 36°
2026-04-21 19:42 57.11253 15.43396 38305 ft 432 kts 36°
2026-04-21 19:43 57.16094 15.49961 38309 ft 432 kts 36°
2026-04-21 19:43 57.20931 15.56540 38303 ft 432 kts 36°
2026-04-21 19:44 57.25767 15.63140 38302 ft 432 kts 36°
2026-04-21 19:44 57.30606 15.69768 38304 ft 434 kts 36°
2026-04-21 19:45 57.35455 15.76431 38300 ft 434 kts 36°
2026-04-21 19:45 57.40298 15.83108 38298 ft 434 kts 36°
2026-04-21 19:46 57.45138 15.89804 38295 ft 434 kts 36°
2026-04-21 19:46 57.49979 15.96524 38295 ft 434 kts 36°
2026-04-21 19:47 57.54816 16.03260 38291 ft 434 kts 37°
2026-04-21 19:47 57.59651 16.10018 38288 ft 434 kts 37°
2026-04-21 19:48 57.64512 16.16834 38287 ft 434 kts 37°
2026-04-21 19:48 57.69344 16.23634 38287 ft 434 kts 37°
2026-04-21 19:49 57.74165 16.30440 38289 ft 434 kts 37°
2026-04-21 19:49 57.78984 16.37268 38282 ft 434 kts 37°
2026-04-21 19:50 57.82989 16.42960 38281 ft 434 kts 37°
2026-04-21 19:50 57.88616 16.50985 38282 ft 434 kts 37°
2026-04-21 19:51 57.93415 16.57855 37963 ft 431 kts 37°
2026-04-21 19:51 57.95796 16.61272 37252 ft 431 kts 37°
2026-04-21 19:51 57.98186 16.64708 36595 ft 431 kts 37°
2026-04-21 19:51 58.00564 16.68133 35980 ft 430 kts 36°
2026-04-21 19:52 58.02941 16.71563 35364 ft 429 kts 36°
2026-04-21 19:52 58.05307 16.74982 34763 ft 428 kts 36°
2026-04-21 19:52 58.07662 16.78392 34164 ft 426 kts 36°
2026-04-21 19:52 58.10011 16.81798 33478 ft 425 kts 36°
2026-04-21 19:53 58.12349 16.85194 32726 ft 424 kts 36°
2026-04-21 19:53 58.14691 16.88601 31923 ft 424 kts 36°
2026-04-21 19:53 58.17025 16.92003 31165 ft 424 kts 36°
2026-04-21 19:53 58.19359 16.95410 30554 ft 423 kts 35°
2026-04-21 19:54 58.21685 16.98812 29892 ft 422 kts 35°
2026-04-21 19:54 58.24002 17.02206 29198 ft 419 kts 35°
2026-04-21 19:54 58.26296 17.05573 28516 ft 415 kts 35°
2026-04-21 19:54 58.28568 17.08913 27867 ft 410 kts 35°
2026-04-21 19:55 58.30816 17.12224 27226 ft 406 kts 35°
2026-04-21 19:55 58.33038 17.15501 26601 ft 402 kts 35°
2026-04-21 19:55 58.35240 17.18754 25981 ft 403 kts 35°
2026-04-21 19:55 58.37518 17.22115 25393 ft 425 kts 35°
2026-04-21 19:56 58.39891 17.25626 24809 ft 437 kts 36°
2026-04-21 19:56 58.42299 17.29202 24224 ft 439 kts 36°
2026-04-21 19:56 58.44702 17.32779 23637 ft 438 kts 36°
2026-04-21 19:56 58.47097 17.36350 22969 ft 436 kts 36°
2026-04-21 19:57 58.49480 17.39909 22307 ft 433 kts 36°
2026-04-21 19:57 58.51839 17.43438 21667 ft 429 kts 36°
2026-04-21 19:57 58.54206 17.46874 21035 ft 424 kts 32°
2026-04-21 19:57 58.56751 17.49701 20405 ft 412 kts 24°
2026-04-21 19:58 58.59404 17.51551 19800 ft 401 kts 15°
2026-04-21 19:58 58.62089 17.52786 19166 ft 394 kts 12°
2026-04-21 19:58 58.64740 17.53836 18706 ft 383 kts 11°
2026-04-21 19:58 58.67323 17.54819 18206 ft 374 kts 11°
2026-04-21 19:59 58.69846 17.55768 17685 ft 365 kts 11°
2026-04-21 19:59 58.72328 17.56698 17175 ft 362 kts 10°
2026-04-21 19:59 58.74793 17.57620 16668 ft 360 kts 10°
2026-04-21 19:59 58.77250 17.58539 16172 ft 359 kts 10°
2026-04-21 20:00 58.78873 17.59146 15856 ft 358 kts 10°
2026-04-21 20:00 58.81317 17.60061 15375 ft 360 kts 10°
2026-04-21 20:00 58.83794 17.60989 14908 ft 364 kts 10°
2026-04-21 20:00 58.86280 17.61922 14427 ft 364 kts 10°
2026-04-21 20:01 58.88763 17.62856 13971 ft 362 kts 10°
2026-04-21 20:01 58.91231 17.63786 13458 ft 360 kts 10°
2026-04-21 20:01 58.93688 17.64712 12950 ft 358 kts 10°
2026-04-21 20:01 58.96124 17.65632 12455 ft 356 kts 10°
2026-04-21 20:02 58.98545 17.66548 11961 ft 354 kts 10°
2026-04-21 20:02 59.00953 17.67460 11491 ft 351 kts 10°
2026-04-21 20:02 59.03340 17.68365 11017 ft 349 kts 10°
2026-04-21 20:02 59.05716 17.69267 10549 ft 347 kts 10°
2026-04-21 20:03 59.08075 17.70164 10067 ft 345 kts 10°
2026-04-21 20:03 59.10423 17.71057 9531 ft 342 kts 10°
2026-04-21 20:03 59.12748 17.71944 9001 ft 339 kts
2026-04-21 20:03 59.15048 17.72823 8481 ft 336 kts
2026-04-21 20:04 59.17332 17.73696 7970 ft 333 kts
2026-04-21 20:04 59.19593 17.74562 7464 ft 329 kts
2026-04-21 20:04 59.21833 17.75423 7004 ft 326 kts 10°
2026-04-21 20:04 59.24000 17.76709 6562 ft 325 kts 17°
2026-04-21 20:05 59.26138 17.78083 6088 ft 322 kts 14°
2026-04-21 20:05 59.28306 17.79129 5624 ft 320 kts 11°
2026-04-21 20:05 59.30477 17.80073 5206 ft 323 kts 10°
2026-04-21 20:05 59.31991 17.80671 5048 ft 333 kts
2026-04-21 20:06 59.33634 17.81272 4887 ft 339 kts
2026-04-21 20:06 59.35965 17.82053 4650 ft 338 kts
2026-04-21 20:06 59.38215 17.82593 4401 ft 316 kts 360°
2026-04-21 20:06 59.40342 17.82629 4155 ft 297 kts
2026-04-21 20:07 59.42304 17.83391 3908 ft 277 kts 12°
2026-04-21 20:07 59.44100 17.84242 3664 ft 256 kts 10°
2026-04-21 20:07 59.45785 17.84887 3425 ft 238 kts
2026-04-21 20:07 59.47368 17.85448 3176 ft 224 kts
2026-04-21 20:08 59.48847 17.85966 2971 ft 206 kts
2026-04-21 20:08 59.50201 17.86439 2738 ft 189 kts
2026-04-21 20:08 59.51452 17.86882 2488 ft 176 kts
2026-04-21 20:08 59.52613 17.87300 2299 ft 162 kts
2026-04-21 20:09 59.53683 17.87689 2178 ft 154 kts
2026-04-21 20:09 59.54736 17.88072 1979 ft 154 kts
2026-04-21 20:09 59.55790 17.88453 1763 ft 154 kts
2026-04-21 20:09 59.56861 17.88838 1553 ft 155 kts
2026-04-21 20:10 59.57894 17.89211 1356 ft 151 kts
2026-04-21 20:10 59.58877 17.89566 1127 ft 136 kts
2026-04-21 20:10 59.59774 17.89888 957 ft 128 kts
2026-04-21 20:10 59.60667 17.90212 784 ft 130 kts
2026-04-21 20:11 59.61552 17.90532 660 ft 132 kts
2026-04-21 20:11 59.62483 17.90855 495 ft 134 kts
2026-04-21 20:11 59.63403 17.91182 296 ft 134 kts 10°
2026-04-21 20:11 59.64313 17.91531 167 ft 129 kts 11°
2026-04-21 20:12 59.65103 17.91808 146 ft 94 kts 10°
2026-04-21 20:12 59.65563 17.91994 147 ft 41 kts 19°
2026-04-21 20:12 59.65773 17.92226 143 ft 18 kts 45°
2026-04-21 20:12 59.65795 17.92376 141 ft 4 kts 127°
2026-04-21 20:13 59.65778 17.92403 141 ft 0 kts 152°
2026-04-21 20:13 59.65766 17.92412 141 ft 7 kts 159°
2026-04-21 20:13 59.65684 17.92453 141 ft 13 kts 166°
2026-04-21 20:13 59.65589 17.92501 141 ft 18 kts 165°
2026-04-21 20:14 59.65452 17.92606 141 ft 23 kts 153°
2026-04-21 20:14 59.65304 17.92752 141 ft 24 kts 154°
2026-04-21 20:14 59.65223 17.92893 141 ft 5 kts 67°
2026-04-21 20:14 59.65238 17.92976 141 ft 7 kts 69°
2026-04-21 20:15 59.65243 17.93001 141 ft 0 kts 70°